Flag for U.S.A. Weather past 2 weeks in Little Rock, Arkansas, U.S.A.

Now
74 °F

Passing clouds.


Feels Like: 73 °F
Forecast: 76 / 94 °F
Wind: 8 mph from Southwest

Location: Adams Field

Current Time: Aug 21, 2014 at 7:20:00 AM

Latest Report: Aug 21, 2014 at 6:53 AM


Visibility: 10 mi

Pressure: 30.07 "Hg

Humidity: 85%

Dew point: 69 °F

Location of Little RockLocation

Historic Weather in Little Rock — Graph

°F

Little Rock temperature yesterday

Maximum temperature yesterday: 92 °F (at 1:53 PM)
Minimum temperature yesterday: 75 °F (at 6:53 AM)
Average temperature yesterday: 83 °F

Past Weeks' High & Low Weather Summary

 TemperatureHumidityPressure
High95 °F (Aug 17, 1:53 PM)91% (Aug 8, 3:53 AM)30.12 "Hg (Aug 8, 3:53 AM)
Low66 °F (Aug 13, 6:53 AM)36% (Aug 12, 4:53 PM)29.83 "Hg (Aug 19, 5:53 PM)
Average80 °F70%29.97 "Hg
* Reported Aug 6 5:53 AM — Aug 21 5:53 AM, Little Rock, Weather by CustomWeather, © 2014

Note: Actual official high and low records may vary slightly from our data, if they occured in-between our weather recording intervals... More about our weather records

Advertising

Little Rock weather history for previous 24 hours

 ConditionsComfort  
Time TempWeatherWind HumidityBarometerVisibility
5:53 AM
Aug 21
73 °FPassing clouds.6 mph88%30.06 "Hg10 mi
4:53 AM76 °FClear.8 mph80%30.04 "Hg10 mi
3:53 AM76 °FClear.6 mph82%30.03 "Hg10 mi
2:53 AM77 °FClear.8 mph77%30.03 "Hg10 mi
1:53 AM78 °FClear.8 mph79%30.03 "Hg10 mi
12:53 AM78 °FClear.6 mph84%30.02 "Hg10 mi
11:53 PM
Aug 20
79 °FClear.7 mph82%30.02 "Hg10 mi
10:53 PM80 °FClear.5 mph79%30.02 "Hg10 mi
9:53 PM81 °FClear.5 mph79%30.01 "Hg10 mi
8:53 PM82 °FPassing clouds.6 mph77%29.98 "Hg10 mi
7:53 PM84 °FPassing clouds.6 mph70%29.97 "Hg10 mi
6:53 PM88 °FSunny.6 mph59%29.97 "Hg10 mi
5:53 PM91 °FSunny.10 mph49%29.96 "Hg10 mi
4:53 PM92 °FSunny.9 mph43%29.97 "Hg10 mi
3:53 PM92 °FSunny.10 mph44%29.99 "Hg10 mi
2:53 PM92 °FSunny.14 mph43%30.01 "Hg10 mi
1:53 PM92 °FSunny.14 mph46%30.02 "Hg10 mi
12:53 PM90 °FSunny.10 mph52%30.02 "Hg10 mi
11:53 AM89 °FSunny.10 mph53%30.03 "Hg10 mi
10:53 AM87 °FSunny.10 mph57%30.03 "Hg10 mi
9:53 AM84 °FPassing clouds.12 mph61%30.01 "Hg10 mi
8:53 AM81 °FPassing clouds.7 mph69%30.01 "Hg10 mi
7:53 AM77 °FPassing clouds.6 mph79%29.99 "Hg10 mi
Weather by CustomWeather, © 2014

See weather overviewHow to use our weather pages